GW0795 Weather Reports


time (UTC)temp
C
wind
direction
speed
KPH
gust
KPH
rain 1hr
cm
rain 24hr
cm
rain mn
cm
humidity
%
barometer
mb
20260905005013 19 104 1.6 16.1 0.00 0.10 0.03 55 1014.5
20260905004505 19 92 3.2 16.1 0.00 0.10 0.03 53 1014.5
20260905004005 19 133 1.6 6.4 0.00 0.10 0.03 53 1014.5
20260905003508 19 167 1.6 6.4 0.00 0.10 0.03 57 1014.4
20260905003008 19 178 1.6 11.3 0.00 0.10 0.03 58 1014.4
20260905002508 19 213 3.2 12.9 0.00 0.10 0.03 56 1014.3
20260905002002 20 120 8.0 12.9 0.00 0.10 0.03 55 1014.3
20260905001503 20 114 1.6 8.0 0.00 0.10 0.03 50 1014.3
20260905001000 19 311 0.0 6.4 0.00 0.10 0.03 50 1014.2
20260905000501 20 352 1.6 6.4 0.00 0.10 0.03 49 1014.2
20260905000004 20 329 1.6 4.8 0.00 0.10 0.03 49 1014.2
20260904235503 20 350 1.6 6.4 0.00 0.10 0.03 48 1014.1
20260904235003 20 269 1.6 6.4 0.00 0.10 0.03 51 1014.2
20260904234507 20 345 1.6 6.4 0.00 0.10 0.03 47 1014.1
20260904234004 20 349 1.6 6.4 0.00 0.10 0.03 49 1014.2
20260904233505 20 270 1.6 9.7 0.00 0.10 0.03 47 1014.2
20260904233008 20 290 4.8 9.7 0.00 0.10 0.03 45 1014.2
20260904232508 20 273 3.2 6.4 0.00 0.10 0.03 49 1014.2
20260904232007 20 309 3.2 6.4 0.00 0.10 0.03 49 1014.2
20260904231513 20 321 1.6 6.4 0.00 0.10 0.03 52 1014.1
20260904231011 19 284 0.0 4.8 0.00 0.10 0.03 54 1014.1
20260904230502 19 252 1.6 4.8 0.00 0.10 0.03 54 1014.0
20260904230004 19 282 1.6 4.8 0.00 0.10 0.03 53 1014.0
20260904225502 20 280 3.2 12.9 0.00 0.10 0.03 54 1013.9
20260904225001 20 327 3.2 12.9 0.00 0.10 0.03 54 1013.9
20260904224504 20 9 3.2 9.7 0.00 0.10 0.03 55 1013.9
20260904224001 20 329 3.2 11.3 0.00 0.10 0.03 57 1013.9
20260904223505 20 315 4.8 11.3 0.00 0.10 0.03 56 1013.8
20260904223006 20 290 3.2 11.3 0.00 0.10 0.03 56 1013.9
20260904222504 20 288 4.8 11.3 0.00 0.10 0.03 57 1013.8
20260904222004 20 277 4.8 11.3 0.00 0.10 0.03 56 1013.8
20260904221510 20 279 1.6 9.7 0.00 0.10 0.03 56 1013.8
20260904221008 20 52 4.8 9.7 0.00 0.10 0.03 58 1013.8
20260904220509 19 287 3.2 9.7 0.00 0.10 0.03 58 1013.8
20260904220026 20 263 3.2 6.4 0.00 0.10 0.03 56 1013.7
20260904215511 20 329 1.6 6.4 0.00 0.10 0.03 59 1013.8
20260904215004 19 322 3.2 11.3 0.00 0.10 0.03 59 1013.8
20260904214504 19 267 4.8 11.3 0.00 0.10 0.03 61 1013.8
20260904214005 19 282 1.6 9.7 0.00 0.10 0.03 61 1013.8
20260904213506 18 280 3.2 9.7 0.00 0.10 0.03 61 1013.8
20260904213011 18 286 4.8 9.7 0.00 0.10 0.03 61 1013.7
20260904212506 18 271 3.2 9.7 0.00 0.10 0.03 61 1013.7
20260904212004 18 240 1.6 9.7 0.00 0.10 0.03 62 1013.7
20260904211508 18 294 3.2 11.3 0.00 0.10 0.03 62 1013.6
20260904211008 18 309 3.2 11.3 0.00 0.10 0.03 64 1013.6
20260904210512 18 275 3.2 11.3 0.00 0.10 0.03 64 1013.6
20260904210019 18 323 3.2 12.9 0.00 0.10 0.03 63 1013.7
20260904205510 17 259 6.4 12.9 0.00 0.10 0.03 63 1013.6
20260904205010 18 304 3.2 12.9 0.00 0.10 0.03 63 1013.7
20260904204521 18 288 6.4 12.9 0.00 0.10 0.03 64 1013.7
20260904204012 18 295 1.6 9.7 0.00 0.10 0.03 66 1013.7
20260904203507 17 277 4.8 9.7 0.00 0.10 0.03 66 1013.8
20260904203006 18 320 4.8 9.7 0.00 0.10 0.03 65 1013.8
20260904202504 17 248 1.6 11.3 0.00 0.10 0.03 68 1013.9
20260904202006 17 274 4.8 11.3 0.00 0.10 0.03 68 1013.8
20260904201509 17 209 1.6 9.7 0.00 0.10 0.03 68 1013.9
20260904201011 17 283 3.2 9.7 0.00 0.10 0.03 68 1013.8
20260904200509 17 263 4.8 6.4 0.00 0.10 0.03 68 1014.0
20260904200018 17 267 3.2 9.7 0.00 0.10 0.03 69 1014.0
20260904195509 16 324 3.2 9.7 0.00 0.10 0.03 69 1014.0
20260904195009 17 286 4.8 11.3 0.00 0.10 0.03 69 1014.0
20260904194541 17 321 4.8 11.3 0.00 0.10 0.03 69 1013.9
20260904194012 17 268 4.8 11.3 0.00 0.10 0.03 70 1013.9
20260904193517 17 156 1.6 12.9 0.00 0.10 0.03 72 1013.8
20260904193027 17 288 4.8 12.9 0.00 0.10 0.03 72 1013.9
20260904192516 17 298 4.8 11.3 0.00 0.10 0.03 71 1013.9
20260904192005 17 290 3.2 11.3 0.00 0.10 0.03 75 1013.9
20260904191504 16 342 3.2 9.7 0.00 0.10 0.03 74 1014.0
20260904191005 16 325 1.6 11.3 0.00 0.10 0.03 76 1014.0
20260904190508 16 286 3.2 11.3 0.00 0.10 0.03 76 1014.0
20260904190008 16 271 4.8 9.7 0.00 0.10 0.03 74 1014.0
20260904185512 16 286 1.6 4.8 0.00 0.10 0.03 75 1014.0
20260904185011 16 288 1.6 9.7 0.00 0.10 0.03 78 1014.0
20260904184518 16 287 3.2 9.7 0.00 0.10 0.03 78 1014.1
20260904184012 16 301 3.2 6.4 0.00 0.10 0.03 77 1014.0
20260904183514 15 281 3.2 6.4 0.00 0.10 0.03 79 1014.0
20260904183023 15 337 3.2 4.8 0.00 0.10 0.03 78 1014.0
20260904182515 16 350 1.6 6.4 0.00 0.10 0.03 78 1014.0
20260904182016 16 5 3.2 6.4 0.00 0.10 0.03 77 1013.9
20260904181526 15 185 0.0 3.2 0.00 0.10 0.03 79 1013.9
20260904181017 15 292 1.6 4.8 0.00 0.10 0.03 79 1014.0
20260904180503 15 273 1.6 4.8 0.00 0.10 0.03 79 1014.0
20260904180007 15 288 1.6 4.8 0.00 0.10 0.03 80 1014.0
20260904175508 15 142 1.6 4.8 0.00 0.10 0.03 80 1014.0
20260904175008 15 239 1.6 6.4 0.00 0.10 0.03 83 1014.1
20260904174519 15 19 3.2 6.4 0.00 0.10 0.03 82 1014.1
20260904174010 15 229 3.2 6.4 0.00 0.10 0.03 83 1014.1
20260904173511 14 277 3.2 4.8 0.00 0.10 0.03 85 1014.1
20260904173018 13 284 3.2 4.8 0.00 0.10 0.03 86 1014.1
20260904172512 13 170 0.0 4.8 0.00 0.10 0.03 88 1014.1
20260904172014 13 277 1.6 3.2 0.00 0.10 0.03 87 1014.1
20260904171523 13 151 0.0 3.2 0.00 0.10 0.03 88 1014.1
20260904171015 13 287 0.0 4.8 0.00 0.10 0.03 88 1014.0
20260904170519 13 279 1.6 6.4 0.00 0.10 0.03 88 1014.1
20260904170031 13 261 1.6 6.4 0.00 0.10 0.03 87 1014.1
20260904165516 13 272 0.0 3.2 0.00 0.10 0.03 88 1014.1
20260904165008 13 269 0.0 3.2 0.00 0.10 0.03 88 1014.1
20260904164511 13 229 0.0 4.8 0.00 0.10 0.03 89 1013.9
20260904164007 13 293 3.2 6.4 0.00 0.10 0.03 88 1013.9
20260904163507 13 296 3.2 6.4 0.00 0.10 0.03 88 1014.0
20260904163014 13 295 1.6 4.8 0.00 0.10 0.03 87 1014.0
20260904162512 13 274 1.6 3.2 0.00 0.10 0.03 87 1013.9
20260904162011 14 307 1.6 3.2 0.00 0.10 0.03 85 1013.9
20260904161524 14 29 0.0 0.0 0.00 0.10 0.03 87 1013.9
20260904161014 13 24 0.0 0.0 0.00 0.10 0.03 86 1013.8
20260904160514 13 100 0.0 0.0 0.00 0.10 0.03 87 1013.7
20260904160029 13 75 0.0 0.0 0.00 0.10 0.03 87 1013.7
20260904155515 13 65 0.0 0.0 0.00 0.10 0.03 87 1013.7
20260904155015 13 342 0.0 0.0 0.00 0.10 0.03 88 1013.7
20260904154507 13 352 0.0 0.0 0.00 0.10 0.03 89 1013.6
20260904154007 13 352 0.0 0.0 0.00 0.10 0.03 88 1013.6
20260904153508 13 352 0.0 0.0 0.00 0.10 0.03 89 1013.5
20260904153018 13 352 0.0 0.0 0.00 0.10 0.03 91 1013.4
20260904152511 13 280 0.0 0.0 0.00 0.10 0.03 92 1013.4
20260904152011 12 280 0.0 0.0 0.00 0.10 0.03 93 1013.3
20260904151504 12 280 0.0 0.0 0.00 0.10 0.03 93 1013.2
20260904151001 12 280 0.0 0.0 0.00 0.10 0.03 93 1013.2
20260904150504 12 280 0.0 0.0 0.00 0.10 0.03 93 1013.1
20260904150009 12 280 0.0 0.0 0.00 0.10 0.03 93 1013.1
20260904145504 12 280 0.0 0.0 0.00 0.10 0.03 94 1013.0
20260904145005 12 280 0.0 0.0 0.00 0.10 0.03 93 1013.0
20260904144508 12 280 0.0 0.0 0.00 0.10 0.03 93 1013.0
20260904144009 11 280 0.0 0.0 0.00 0.10 0.03 93 1012.9
20260904143506 11 280 0.0 0.0 0.00 0.10 0.03 94 1012.9
20260904143011 11 280 0.0 0.0 0.00 0.10 0.03 94 1012.9
20260904142507 11 280 0.0 0.0 0.00 0.10 0.03 94 1012.9
20260904142010 11 280 0.0 0.0 0.00 0.10 0.03 94 1012.8
20260904141519 11 280 0.0 0.0 0.00 0.10 0.03 94 1012.8
20260904141012 11 280 0.0 0.0 0.00 0.13 0.03 94 1012.7
20260904140512 11 280 0.0 0.0 0.00 0.13 0.03 94 1012.6
20260904140004 11 280 0.0 0.0 0.00 0.13 0.03 94 1012.5
20260904135504 11 280 0.0 0.0 0.00 0.13 0.03 93 1012.4
20260904135007 11 280 0.0 0.0 0.00 0.13 0.03 94 1012.4
20260904134503 11 280 0.0 0.0 0.00 0.13 0.03 94 1012.3
20260904134007 11 280 0.0 0.0 0.00 0.13 0.03 94 1012.3
20260904133504 11 280 0.0 0.0 0.00 0.13 0.03 94 1012.2
20260904133008 11 280 0.0 0.0 0.00 0.15 0.03 93 1012.2
20260904132509 11 280 0.0 0.0 0.00 0.15 0.03 94 1012.2
20260904132008 11 280 0.0 0.0 0.00 0.15 0.03 93 1012.2
20260904131515 11 280 0.0 0.0 0.00 0.15 0.03 93 1012.1
20260904131011 11 280 0.0 0.0 0.00 0.15 0.03 93 1012.0
20260904130516 11 280 0.0 0.0 0.00 0.18 0.03 93 1012.0
20260904130023 11 280 0.0 0.0 0.00 0.18 0.03 93 1012.0
20260904125512 11 280 0.0 0.0 0.00 0.20 0.03 93 1011.9
20260904125017 11 280 0.0 0.0 0.00 0.20 0.03 93 1012.0
20260904124504 11 280 0.0 0.0 0.00 0.23 0.03 94 1012.0
20260904124004 11 279 0.0 0.0 0.00 0.23 0.03 93 1011.9
20260904123503 11 279 0.0 0.0 0.00 0.23 0.03 93 1011.8
20260904123006 11 279 0.0 0.0 0.00 0.23 0.03 93 1011.9
20260904122505 11 280 0.0 0.0 0.00 0.23 0.03 93 1011.7
20260904122008 11 279 0.0 0.0 0.00 0.25 0.03 93 1011.7
20260904121512 11 280 0.0 0.0 0.00 0.28 0.03 93 1011.7
20260904121008 11 280 0.0 0.0 0.00 0.30 0.03 93 1011.7
20260904120511 11 280 0.0 0.0 0.00 0.30 0.03 93 1011.7
20260904120025 11 280 0.0 0.0 0.00 0.36 0.03 93 1011.7
20260904115511 11 280 0.0 0.0 0.00 0.36 0.03 93 1011.5
20260904115010 11 280 0.0 0.0 0.00 0.36 0.03 93 1011.5
20260904114526 11 279 0.0 0.0 0.00 0.36 0.03 93 1011.5
20260904114013 11 279 0.0 0.0 0.00 0.36 0.03 93 1011.5
20260904113514 11 280 0.0 0.0 0.00 0.36 0.03 93 1011.5
20260904113013 11 280 0.0 0.0 0.00 0.36 0.03 93 1011.5
20260904112504 11 280 0.0 0.0 0.00 0.36 0.03 93 1011.4
20260904112004 11 279 0.0 0.0 0.00 0.36 0.03 93 1011.4
20260904111507 11 280 0.0 0.0 0.00 0.36 0.03 93 1011.5
20260904111010 11 280 0.0 0.0 0.00 0.36 0.03 93 1011.5
20260904110508 11 279 0.0 0.0 0.00 0.36 0.03 93 1011.4
20260904110030 11 280 0.0 0.0 0.00 0.36 0.03 93 1011.3
20260904105512 11 279 0.0 0.0 0.00 0.36 0.03 93 1011.3
20260904105012 11 279 0.0 0.0 0.00 0.36 0.03 93 1011.2
20260904104523 11 280 0.0 0.0 0.00 0.36 0.03 93 1011.3
20260904104012 11 279 0.0 0.0 0.00 0.36 0.03 93 1011.3
20260904103513 11 280 0.0 0.0 0.00 0.36 0.03 93 1011.2
20260904103027 11 279 0.0 0.0 0.00 0.36 0.03 93 1011.3
20260904102516 11 279 0.0 0.0 0.00 0.36 0.03 92 1011.2
20260904102014 11 279 0.0 0.0 0.00 0.36 0.03 92 1011.2
20260904101508 11 279 0.0 0.0 0.00 0.36 0.03 92 1011.2
20260904101007 11 301 0.0 0.0 0.00 0.36 0.03 92 1011.1
20260904100510 11 315 0.0 0.0 0.00 0.36 0.03 92 1011.1
20260904100012 11 315 0.0 0.0 0.00 0.36 0.03 93 1011.1
20260904095508 11 315 0.0 0.0 0.00 0.36 0.03 92 1011.1
20260904095010 11 315 0.0 0.0 0.00 0.36 0.03 93 1011.1
20260904094520 11 316 0.0 0.0 0.00 0.36 0.03 93 1011.1
20260904094012 11 315 0.0 0.0 0.00 0.36 0.03 93 1011.1
20260904093514 11 316 0.0 0.0 0.00 0.36 0.03 93 1011.1
20260904093025 11 315 0.0 0.0 0.00 0.36 0.03 92 1011.1
20260904092515 11 315 0.0 0.0 0.00 0.36 0.03 92 1011.1
20260904092014 11 315 0.0 0.0 0.00 0.36 0.03 92 1011.1
20260904091531 11 315 0.0 0.0 0.00 0.36 0.03 92 1011.1
20260904091016 11 315 0.0 0.0 0.00 0.36 0.03 92 1011.1
20260904090516 11 315 0.0 0.0 0.00 0.36 0.03 92 1011.1
20260904090031 11 257 0.0 0.0 0.00 0.36 0.03 92 1011.2
20260904085506 11 257 0.0 0.0 0.00 0.36 0.03 92 1011.1
20260904085011 11 257 0.0 0.0 0.00 0.36 0.03 92 1011.1
20260904084519 11 261 0.0 0.0 0.00 0.36 0.03 92 1011.1
20260904084011 11 261 0.0 0.0 0.03 0.36 0.03 92 1011.1
20260904083511 11 261 0.0 0.0 0.03 0.36 0.03 92 1011.1
20260904083024 11 261 0.0 0.0 0.03 0.36 0.03 92 1011.0
20260904082517 11 261 0.0 0.0 0.03 0.36 0.03 92 1011.0
20260904082015 11 261 0.0 0.0 0.03 0.36 0.03 91 1011.0
20260904081527 12 261 0.0 0.0 0.03 0.36 0.03 91 1011.0
20260904081016 12 246 0.0 0.0 0.03 0.36 0.03 91 1011.0
20260904080519 12 101 0.0 0.0 0.03 0.36 0.03 91 1011.1
20260904080033 12 101 0.0 0.0 0.03 0.36 0.03 91 1011.1
20260904075515 12 101 0.0 0.0 0.05 0.36 0.03 90 1011.1
20260904075021 12 101 0.0 0.0 0.05 0.36 0.03 90 1011.2
20260904074538 12 101 0.0 0.0 0.05 0.36 0.03 90 1011.2
20260904074010 12 101 0.0 3.2 0.03 0.33 0.00 90 1011.3
20260904073513 12 98 0.0 3.2 0.03 0.33 0.00 90 1011.3
20260904073020 12 128 0.0 1.6 0.03 0.33 0.00 90 1011.3
20260904072512 12 107 0.0 0.0 0.03 0.33 0.00 90 1011.3
20260904072012 12 107 0.0 0.0 0.03 0.33 0.00 89 1011.3
20260904071527 12 107 0.0 0.0 0.03 0.33 0.00 89 1011.3
20260904071012 12 107 0.0 3.2 0.03 0.33 0.00 88 1011.2
20260904070518 12 108 0.0 3.2 0.03 0.33 0.00 88 1011.3
20260904070042 13 115 0.0 3.2 0.03 0.33 0.00 88 1011.3
20260904065516 13 118 1.6 3.2 0.00 0.30 0.30 87 1011.3
20260904065016 13 122 0.0 3.2 0.00 0.30 0.30 87 1011.3
20260904064538 13 131 0.0 4.8 0.00 0.30 0.30 87 1011.3
20260904064018 13 107 1.6 4.8 0.00 0.30 0.30 87 1011.3
20260904063519 13 130 0.0 4.8 0.00 0.30 0.30 87 1011.3
20260904063033 13 83 1.6 4.8 0.00 0.30 0.30 87 1011.3
20260904062512 13 99 0.0 3.2 0.00 0.30 0.30 87 1011.3
20260904062013 13 103 1.6 3.2 0.00 0.30 0.30 87 1011.2
20260904061524 13 121 0.0 4.8 0.00 0.30 0.30 86 1011.2
20260904061015 13 74 1.6 4.8 0.00 0.30 0.30 86 1011.2
20260904060514 13 105 0.0 3.2 0.00 0.30 0.30 87 1011.1
20260904060034 13 98 0.0 0.0 0.00 0.30 0.30 89 1011.1
20260904055515 13 98 0.0 0.0 0.00 0.30 0.30 89 1011.0
20260904055016 13 98 0.0 0.0 0.00 0.30 0.30 89 1011.0
20260904054533 13 98 0.0 0.0 0.00 0.30 0.30 88 1011.0
20260904054019 12 98 0.0 0.0 0.00 0.30 0.30 88 1010.9
20260904053516 12 98 0.0 0.0 0.00 0.30 0.30 88 1011.0
20260904053034 13 98 0.0 0.0 0.00 0.30 0.30 88 1011.0
20260904052519 13 98 0.0 0.0 0.00 0.30 0.30 88 1011.0
20260904052019 13 98 0.0 0.0 0.00 0.30 0.30 88 1011.0
20260904051532 13 98 0.0 0.0 0.00 0.30 0.30 88 1011.0
20260904051015 13 98 0.0 0.0 0.00 0.30 0.30 89 1011.1
20260904050514 13 98 0.0 0.0 0.00 0.30 0.30 89 1011.0
20260904050028 13 98 0.0 0.0 0.00 0.30 0.30 89 1011.0
20260904045504 13 98 0.0 0.0 0.00 0.30 0.30 89 1011.0
20260904045004 13 98 0.0 0.0 0.00 0.30 0.30 89 1011.0
20260904044507 13 98 0.0 0.0 0.00 0.30 0.30 89 1011.1
20260904044004 13 98 0.0 0.0 0.00 0.30 0.30 89 1011.0
20260904043506 13 98 0.0 0.0 0.00 0.30 0.30 88 1011.0
20260904043015 13 98 0.0 0.0 0.00 0.30 0.30 88 1011.0
20260904042509 13 98 0.0 0.0 0.00 0.30 0.30 89 1011.0
20260904042009 13 98 0.0 0.0 0.00 0.30 0.30 88 1011.0
20260904041516 13 98 0.0 0.0 0.00 0.30 0.30 88 1010.9
20260904041010 13 98 0.0 0.0 0.00 0.30 0.30 89 1010.9
20260904040513 13 98 0.0 0.0 0.00 0.30 0.30 88 1011.0
20260904040023 13 98 0.0 0.0 0.00 0.30 0.30 88 1011.0
20260904035516 13 98 0.0 0.0 0.00 0.30 0.30 88 1010.9
20260904035014 13 98 0.0 0.0 0.00 0.30 0.30 88 1010.9
20260904034543 13 98 0.0 0.0 0.00 0.30 0.30 88 1010.9
20260904034019 13 98 0.0 0.0 0.00 0.30 0.30 88 1010.8
20260904033507 13 98 0.0 0.0 0.00 0.30 0.30 88 1010.8
20260904033007 13 98 0.0 0.0 0.00 0.30 0.30 88 1010.6
20260904032507 13 98 0.0 0.0 0.00 0.30 0.30 87 1010.6
20260904032008 13 98 0.0 0.0 0.00 0.30 0.30 88 1010.4
20260904031515 13 98 0.0 0.0 0.00 0.30 0.30 88 1010.5
20260904031011 13 98 0.0 0.0 0.03 0.30 0.30 87 1010.4
20260904030510 13 98 0.0 0.0 0.03 0.30 0.30 87 1010.3
20260904030021 13 98 0.0 0.0 0.03 0.30 0.30 87 1010.4
20260904025511 13 98 0.0 0.0 0.03 0.30 0.30 86 1010.4
20260904025012 13 98 0.0 0.0 0.05 0.30 0.30 85 1010.4
20260904024528 13 98 0.0 0.0 0.05 0.30 0.30 86 1010.4
20260904024014 13 98 0.0 0.0 0.05 0.30 0.30 87 1010.5
20260904023515 14 98 0.0 0.0 0.05 0.30 0.30 86 1010.5
20260904023030 14 98 0.0 0.0 0.05 0.30 0.30 85 1010.5
20260904022524 14 98 0.0 3.2 0.05 0.30 0.30 85 1010.4
20260904022010 14 98 0.0 3.2 0.05 0.30 0.30 86 1010.4
20260904021510 14 98 0.0 3.2 0.05 0.30 0.30 85 1010.4
20260904021007 14 98 0.0 6.4 0.03 0.28 0.28 85 1010.4
20260904020507 14 105 1.6 9.7 0.03 0.28 0.28 84 1010.4
20260904020019 15 114 3.2 9.7 0.03 0.28 0.28 83 1010.3
20260904015513 15 113 3.2 4.8 0.03 0.28 0.28 82 1010.3
20260904015012 15 101 1.6 4.8 0.00 0.25 0.25 81 1010.2
20260904014524 15 105 3.2 9.7 0.00 0.25 0.25 79 1010.2
20260904014012 15 108 3.2 9.7 0.00 0.25 0.25 78 1010.3
20260904013516 16 19 3.2 9.7 0.00 0.25 0.25 74 1010.3
20260904013030 16 121 1.6 3.2 0.00 0.25 0.25 71 1010.3
20260904012517 16 261 0.0 3.2 0.00 0.25 0.25 70 1010.3
20260904012016 17 284 0.0 4.8 0.00 0.25 0.25 67 1010.3
20260904011556 17 286 0.0 4.8 0.00 0.25 0.25 66 1010.3
20260904011019 17 260 1.6 9.7 0.00 0.25 0.25 64 1010.3
20260904010508 17 284 3.2 9.7 0.00 0.28 0.25 63 1010.2
20260904010013 17 317 3.2 8.0 0.00 0.30 0.25 61 1010.2
20260904005515 17 150 1.6 8.0 0.00 0.30 0.25 63 1010.2